Regional Weather Roundup
Issued by NWS

Home | Current Version | Previous Version | Text Only | Print | Product List | Glossary On
Versions: 1 2 3 4 5 6 7 8 9 10 11 12 13 14 15 16 17 18 19 20 21 22 23 24 25 26 27 28 29 30 31 32 33 34 35 36 37 38 39 40 41 42 43 44 45 46 47 48 49 50
000
ASUS43 KDTX 182210
RWRMI
MICHIGAN HOURLY REGIONAL WEATHER ROUNDUP
NATIONAL WEATHER SERVICE DETROIT/PONTIAC MI
ISSUED BY NATIONAL WEATHER SERVICE GRAND RAPIDS MI
600 PM EDT FRI AUG 18 2017

NOTE: "FAIR" INDICATES FEW OR NO CLOUDS BELOW 12,000 FEET WITH NO
SIGNIFICANT WEATHER AND/OR OBSTRUCTION TO VISIBILITY.

MIZ047>049-052>055-059>063-066>070-074>076-081>083-182300-
SOUTHEAST LOWER MICHIGAN

CITY           SKY/WX    TMP DP  RH WIND       PRES   REMARKS
ADRIAN         MOSUNNY   76  61  59 NW14      29.85R
ALMA           CLOUDY    70  60  69 W14G23    29.82R
ANN ARBOR      CLOUDY    76  62  62 MISG      29.83R
BAD AXE        CLOUDY    69  62  77 W15G23    29.77R
DETROIT CITY   CLOUDY    77  60  55 W13G18    29.80R
DETROIT        PTSUNNY   78  59  51 W16G23    29.81S
FLINT          CLOUDY    71  60  68 W13G23    29.81R
GROSSE ILE     PTSUNNY   78  62  57 W9G17     29.80S
HILLSDALE      CLOUDY    73  59  60 W7G18     29.86S
HOWELL         CLOUDY    72  60  65 W15G22    29.84R

CITY           SKY/WX    TMP DP  RH WIND       PRES   REMARKS
JACKSON        CLOUDY    73  61  65 W13G20    29.85R
LANSING        CLOUDY    71  59  65 W14       29.84R
MASON          CLOUDY    73  60  64 W12G22    29.85R
MONROE         PTSUNNY   78  63  60 W12G18    29.82R
MT. CLEMENS    PTSUNNY   76  61  60 W17G23    29.78S
PONTIAC        CLOUDY    73  60  63 W20       29.81R
PORT HOPE        N/A     72  63  73 W12G17    29.72R
PORT HURON     CLOUDY    75  61  60 W5        29.79S
TRI CITIES     CLOUDY    70  64  81 W10       29.80R
YPSILANTI      CLOUDY    78  62  57 W18       29.82R
$$
MIZ043>046-050>051-056>058-064>065-071>073-077>080-182300-
SOUTHWEST LOWER MICHIGAN

CITY           SKY/WX    TMP DP  RH WIND       PRES   REMARKS
BATTLE CREEK   CLOUDY    72  61  68 W14       29.87R
BENTON HARBOR  MOSUNNY   75  60  59 W6        29.86S
BIG RAPIDS     CLOUDY    67  58  74 W10G21    29.82R
COLDWATER      MOSUNNY   76  59  56 W14G21    29.86S
HOLLAND        CLOUDY    71  61  70 W6        29.86S
GRAND RAPIDS   CLOUDY    70  60  70 W14G24    29.85R
KALAMAZOO      PTSUNNY   74  58  57 W10       29.87R
MARSHALL       CLOUDY    73  62  68 W12G17    29.86R
MOUNT PLEASANT CLOUDY    72  59  64 W9G20     29.80R
MUSKEGON       CLOUDY    71  60  68 W9        29.85R
STURGIS        SUNNY     76  62  61 W12       29.86S
$$
MIZ016>042-182300-
NORTHERN LOWER MICHIGAN

CITY           SKY/WX    TMP DP  RH WIND       PRES   REMARKS
ALPENA         CLOUDY    66  60  81 W10G17    29.73R
BEAVER ISLAND  CLOUDY    64  57  79 W10G17    29.77R
BELLAIRE       DRIZZLE   62  60  93 NW3       29.79R
CADILLAC       CLOUDY    65  60  82 W7G18     29.81R
CHARLEVOIX     LGT RAIN  63  61  93 NW12G20   29.80R
GAYLORD        CLOUDY    60  57  89 W10       29.78R FOG
HOUGHTON LAKE  CLOUDY    63  61  93 W12       29.80R
MANISTEE       CLOUDY    68  61  78 W10       29.81R
OSCODA         CLOUDY    72  60  66 W17       29.73R
PELLSTON       CLOUDY    64  58  80 W14       29.75R
TRAVERSE CITY  CLOUDY    68  59  73 NW7       29.77S
LUDINGTON      CLOUDY    68  60  75 NW3       29.82R
$$
MIZ007>008-015-182300-
EASTERN UPPER MICHIGAN

CITY           SKY/WX    TMP DP  RH WIND       PRES   REMARKS
KINROSS        CLOUDY    61  57  87 W9        29.71R
MACKINAC ISLAN CLOUDY    62  60  92 W13G18    29.72S
NEWBERRY       CLOUDY    60  59  97 NW12      29.73S
S. S. MARIE    CLOUDY    61  58  90 W12G21    29.69R
$$
MIZ004>006-011>014-085-182300-
CENTRAL UPPER MICHIGAN

CITY           SKY/WX    TMP DP  RH WIND       PRES   REMARKS
MANISTIQUE     CLOUDY    62  55  76 NW12G18   29.76S
ESCANABA       CLOUDY    65  57  75 NW9       29.79S
MENOMINEE      CLOUDY    71  58  63 NW8       29.80R
SAWYER-GWINN   CLOUDY    61  55  82 NW8       29.80R
$$
MIZ001>003-009>011-084-182300-
WESTERN UPPER MICHIGAN

CITY           SKY/WX    TMP DP  RH WIND       PRES   REMARKS
IRON MOUNTAIN  CLOUDY    65  54  67 NW8       29.82R
HOUGHTON       CLOUDY    65  57  75 W16       29.80S
COPPER HARBOR    N/A     62  55  77 N13       29.77S
IRONWOOD       PTSUNNY   69  56  62 W7        29.85F
$$

ABBREVIATIONS USED IN REMARKS
   TC - TEMPERATURE IN CELSIUS
  WCI - WIND CHILL INDEX
   HX - HEAT INDEX
  VSB - VISIBILITY




USA.gov is the U.S. government's official web portal to all federal, state and local government web resources and services.